Year,Month,Day,Hour,Minute,Value (Times are PST for temperature in C)
2014,10,10,00,00,11.30
2014,10,10,00,01,11.30
2014,10,10,00,02,11.30
2014,10,10,00,03,11.30
2014,10,10,00,04,11.40
2014,10,10,00,05,11.40
2014,10,10,00,06,11.40
2014,10,10,00,07,11.50
2014,10,10,00,08,11.50
2014,10,10,00,09,11.50
2014,10,10,00,10,11.40
2014,10,10,00,11,11.40
2014,10,10,00,12,11.30
2014,10,10,00,13,11.30
2014,10,10,00,14,11.20
2014,10,10,00,15,11.10
2014,10,10,00,16,11.10
2014,10,10,00,17,11.00
2014,10,10,00,18,11.00
2014,10,10,00,19,10.90
2014,10,10,00,20,10.90
2014,10,10,00,21,10.80
2014,10,10,00,22,10.80
2014,10,10,00,23,10.80
2014,10,10,00,24,10.80
2014,10,10,00,25,10.70
2014,10,10,00,26,10.70
2014,10,10,00,27,10.60
2014,10,10,00,28,10.60
2014,10,10,00,29,10.50
2014,10,10,00,30,10.50
2014,10,10,00,31,10.50
2014,10,10,00,32,10.40
2014,10,10,00,33,10.40
2014,10,10,00,34,10.40
2014,10,10,00,35,10.40
2014,10,10,00,36,10.40
2014,10,10,00,37,10.40
2014,10,10,00,38,10.40
2014,10,10,00,39,10.40
2014,10,10,00,40,10.40
2014,10,10,00,41,10.40
2014,10,10,00,42,10.50
2014,10,10,00,43,10.50
2014,10,10,00,44,10.60
2014,10,10,00,45,10.60
2014,10,10,00,46,10.60
2014,10,10,00,47,10.70
2014,10,10,00,48,10.70
2014,10,10,00,49,10.70
2014,10,10,00,50,10.70
2014,10,10,00,51,10.70
2014,10,10,00,52,10.70
2014,10,10,00,53,10.70
2014,10,10,00,54,10.70
2014,10,10,00,55,10.70
2014,10,10,00,56,10.80
2014,10,10,00,57,10.80
2014,10,10,00,58,10.80
2014,10,10,00,59,10.80
2014,10,10,01,00,10.80
2014,10,10,01,01,10.90
2014,10,10,01,02,10.90
2014,10,10,01,03,10.90
2014,10,10,01,04,10.90
2014,10,10,01,05,10.90
2014,10,10,01,06,10.80
2014,10,10,01,07,10.80
2014,10,10,01,08,10.70
2014,10,10,01,09,10.60
2014,10,10,01,10,10.50
2014,10,10,01,11,10.40
2014,10,10,01,12,10.40
2014,10,10,01,13,10.40
2014,10,10,01,14,10.40
2014,10,10,01,15,10.40
2014,10,10,01,16,10.40
2014,10,10,01,17,10.40
2014,10,10,01,18,10.40
2014,10,10,01,19,10.40
2014,10,10,01,20,10.40
2014,10,10,01,21,10.40
2014,10,10,01,22,10.40
2014,10,10,01,23,10.40
2014,10,10,01,24,10.30
2014,10,10,01,25,10.30
2014,10,10,01,26,10.30
2014,10,10,01,27,10.30
2014,10,10,01,28,10.30
2014,10,10,01,29,10.20
2014,10,10,01,30,10.20
2014,10,10,01,31,10.20
2014,10,10,01,32,10.20
2014,10,10,01,33,10.10
2014,10,10,01,34,10.10
2014,10,10,01,35,10.00
2014,10,10,01,36,10.00
2014,10,10,01,37,10.00
2014,10,10,01,38,9.90
2014,10,10,01,39,10.00
2014,10,10,01,40,10.00
2014,10,10,01,41,10.00
2014,10,10,01,42,10.00
2014,10,10,01,43,10.00
2014,10,10,01,44,10.10
2014,10,10,01,45,10.10
2014,10,10,01,46,10.10
2014,10,10,01,47,10.20
2014,10,10,01,48,10.20
2014,10,10,01,49,10.20
2014,10,10,01,50,10.20
2014,10,10,01,51,10.20
2014,10,10,01,52,10.30
2014,10,10,01,53,10.30
2014,10,10,01,54,10.30
2014,10,10,01,55,10.30
2014,10,10,01,56,10.30
2014,10,10,01,57,10.40
2014,10,10,01,58,10.40
2014,10,10,01,59,10.40
2014,10,10,02,00,10.40
2014,10,10,02,01,10.50
2014,10,10,02,02,10.50
2014,10,10,02,03,10.50
2014,10,10,02,04,10.50
2014,10,10,02,05,10.60
2014,10,10,02,06,10.60
2014,10,10,02,07,10.60
2014,10,10,02,08,10.60
2014,10,10,02,09,10.60
2014,10,10,02,10,10.60
2014,10,10,02,11,10.60
2014,10,10,02,12,10.60
2014,10,10,02,13,10.60
2014,10,10,02,14,10.60
2014,10,10,02,15,10.60
2014,10,10,02,16,10.50
2014,10,10,02,17,10.50
2014,10,10,02,18,10.50
2014,10,10,02,19,10.50
2014,10,10,02,20,10.50
2014,10,10,02,21,10.40
2014,10,10,02,22,10.40
2014,10,10,02,23,10.40
2014,10,10,02,24,10.40
2014,10,10,02,25,10.40
2014,10,10,02,26,10.40
2014,10,10,02,27,10.40
2014,10,10,02,28,10.40
2014,10,10,02,29,10.40
2014,10,10,02,30,10.40
2014,10,10,02,31,10.40
2014,10,10,02,32,10.30
2014,10,10,02,33,10.40
2014,10,10,02,34,10.40
2014,10,10,02,35,10.40
2014,10,10,02,36,10.50
2014,10,10,02,37,10.50
2014,10,10,02,38,10.60
2014,10,10,02,39,10.60
2014,10,10,02,40,10.60
2014,10,10,02,41,10.60
2014,10,10,02,42,10.60
2014,10,10,02,43,10.60
2014,10,10,02,44,10.60
2014,10,10,02,45,10.60
2014,10,10,02,46,10.50
2014,10,10,02,47,10.40
2014,10,10,02,48,10.40
2014,10,10,02,49,10.40
2014,10,10,02,50,10.30
2014,10,10,02,51,10.30
2014,10,10,02,52,10.30
2014,10,10,02,53,10.30
2014,10,10,02,54,10.30
2014,10,10,02,55,10.30
2014,10,10,02,56,10.30
2014,10,10,02,57,10.20
2014,10,10,02,58,10.20
2014,10,10,02,59,10.20
2014,10,10,03,00,10.10
2014,10,10,03,01,10.10
2014,10,10,03,02,10.10
2014,10,10,03,03,10.10
2014,10,10,03,04,10.00
2014,10,10,03,05,10.00
2014,10,10,03,06,9.90
2014,10,10,03,07,9.90
2014,10,10,03,08,9.80
2014,10,10,03,09,9.70
2014,10,10,03,10,9.60
2014,10,10,03,11,9.50
2014,10,10,03,12,9.40
2014,10,10,03,13,9.30
2014,10,10,03,14,9.20
2014,10,10,03,15,9.20
2014,10,10,03,16,9.20
2014,10,10,03,17,9.20
2014,10,10,03,18,9.20
2014,10,10,03,19,9.20
2014,10,10,03,20,9.20
2014,10,10,03,21,9.20
2014,10,10,03,22,9.20
2014,10,10,03,23,9.20
2014,10,10,03,24,9.30
2014,10,10,03,25,9.50
2014,10,10,03,26,9.60
2014,10,10,03,27,9.60
2014,10,10,03,28,9.70
2014,10,10,03,29,9.70
2014,10,10,03,30,9.70
2014,10,10,03,31,9.70
2014,10,10,03,32,9.70
2014,10,10,03,33,9.70
2014,10,10,03,34,9.70
2014,10,10,03,35,9.70
2014,10,10,03,36,9.70
2014,10,10,03,37,9.70
2014,10,10,03,38,9.60
2014,10,10,03,39,9.60
2014,10,10,03,40,9.60
2014,10,10,03,41,9.60
2014,10,10,03,42,9.70
2014,10,10,03,43,9.80
2014,10,10,03,44,10.00
2014,10,10,03,45,10.10
2014,10,10,03,46,10.30
2014,10,10,03,47,10.40
2014,10,10,03,48,10.50
2014,10,10,03,49,10.60
2014,10,10,03,50,10.60
2014,10,10,03,51,10.70
2014,10,10,03,52,10.70
2014,10,10,03,53,10.70
2014,10,10,03,54,10.70
2014,10,10,03,55,10.70
2014,10,10,03,56,10.60
2014,10,10,03,57,10.60
2014,10,10,03,58,10.60
2014,10,10,03,59,10.60
2014,10,10,04,00,10.50
2014,10,10,04,01,10.40
2014,10,10,04,02,10.40
2014,10,10,04,03,10.20
2014,10,10,04,04,10.10
2014,10,10,04,05,10.10
2014,10,10,04,06,10.00
2014,10,10,04,07,10.00
2014,10,10,04,08,10.00
2014,10,10,04,09,10.00
2014,10,10,04,10,10.00
2014,10,10,04,11,10.00
2014,10,10,04,12,10.00
2014,10,10,04,13,10.10
2014,10,10,04,14,10.10
2014,10,10,04,15,10.10
2014,10,10,04,16,10.10
2014,10,10,04,17,10.10
2014,10,10,04,18,10.20
2014,10,10,04,19,10.20
2014,10,10,04,20,10.20
2014,10,10,04,21,10.20
2014,10,10,04,22,10.20
2014,10,10,04,23,10.20
2014,10,10,04,24,10.20
2014,10,10,04,25,10.20
2014,10,10,04,26,10.20
2014,10,10,04,27,10.20
2014,10,10,04,28,10.20
2014,10,10,04,29,10.20
2014,10,10,04,30,10.10
2014,10,10,04,31,10.10
2014,10,10,04,32,10.10
2014,10,10,04,33,10.10
2014,10,10,04,34,10.10
2014,10,10,04,35,10.10
2014,10,10,04,36,10.10
2014,10,10,04,37,10.10
2014,10,10,04,38,10.10
2014,10,10,04,39,10.10
2014,10,10,04,40,10.10
2014,10,10,04,41,10.20
2014,10,10,04,42,10.20
2014,10,10,04,43,10.20
2014,10,10,04,44,10.20
2014,10,10,04,45,10.20
2014,10,10,04,46,10.20
2014,10,10,04,47,10.20
2014,10,10,04,48,10.20
2014,10,10,04,49,10.20
2014,10,10,04,50,10.20
2014,10,10,04,51,10.20
2014,10,10,04,52,10.20
2014,10,10,04,53,10.20
2014,10,10,04,54,10.20
2014,10,10,04,55,10.10
2014,10,10,04,56,10.10
2014,10,10,04,57,10.10
2014,10,10,04,58,10.10
2014,10,10,04,59,10.10
2014,10,10,05,00,10.00
2014,10,10,05,01,10.00
2014,10,10,05,02,10.00
2014,10,10,05,03,10.00
2014,10,10,05,04,9.90
2014,10,10,05,05,9.90
2014,10,10,05,06,9.90
2014,10,10,05,07,9.80
2014,10,10,05,08,9.80
2014,10,10,05,09,9.80
2014,10,10,05,10,9.80
2014,10,10,05,11,9.80
2014,10,10,05,12,9.80
2014,10,10,05,13,9.90
2014,10,10,05,14,9.90
2014,10,10,05,15,9.90
2014,10,10,05,16,10.00
2014,10,10,05,17,10.10
2014,10,10,05,18,10.10
2014,10,10,05,19,10.10
2014,10,10,05,20,10.10
2014,10,10,05,21,10.10
2014,10,10,05,22,10.10
2014,10,10,05,23,10.00
2014,10,10,05,24,10.00
2014,10,10,05,25,9.90
2014,10,10,05,26,9.90
2014,10,10,05,27,9.80
2014,10,10,05,28,9.60
2014,10,10,05,29,9.60
2014,10,10,05,30,9.50
2014,10,10,05,31,9.50
2014,10,10,05,32,9.40
2014,10,10,05,33,9.50
2014,10,10,05,34,9.50
2014,10,10,05,35,9.50
2014,10,10,05,36,9.60
2014,10,10,05,37,9.60
2014,10,10,05,38,9.50
2014,10,10,05,39,9.40
2014,10,10,05,40,9.30
2014,10,10,05,41,9.20
2014,10,10,05,42,9.20
2014,10,10,05,43,9.10
2014,10,10,05,44,9.10
2014,10,10,05,45,9.00
2014,10,10,05,46,9.00
2014,10,10,05,47,9.00
2014,10,10,05,48,8.90
2014,10,10,05,49,8.90
2014,10,10,05,50,8.90
2014,10,10,05,51,9.00
2014,10,10,05,52,9.00
2014,10,10,05,53,9.10
2014,10,10,05,54,9.20
2014,10,10,05,55,9.20
2014,10,10,05,56,9.20
2014,10,10,05,57,9.20
2014,10,10,05,58,9.20
2014,10,10,05,59,9.20
2014,10,10,06,00,9.20
2014,10,10,06,01,9.20
2014,10,10,06,02,9.20
2014,10,10,06,03,9.30
2014,10,10,06,04,9.30
2014,10,10,06,05,9.30
2014,10,10,06,06,9.30
2014,10,10,06,07,9.40
2014,10,10,06,08,9.40
2014,10,10,06,09,9.50
2014,10,10,06,10,9.50
2014,10,10,06,11,9.60
2014,10,10,06,12,9.60
2014,10,10,06,13,9.60
2014,10,10,06,14,9.60
2014,10,10,06,15,9.60
2014,10,10,06,16,9.60
2014,10,10,06,17,9.60
2014,10,10,06,18,9.60
2014,10,10,06,19,9.70
2014,10,10,06,20,9.70
2014,10,10,06,21,9.70
2014,10,10,06,22,9.70
2014,10,10,06,23,9.70
2014,10,10,06,24,9.70
2014,10,10,06,25,9.70
2014,10,10,06,26,9.70
2014,10,10,06,27,9.70
2014,10,10,06,28,9.70
2014,10,10,06,29,9.70
2014,10,10,06,30,9.80
2014,10,10,06,31,9.80
2014,10,10,06,32,9.80
2014,10,10,06,33,9.80
2014,10,10,06,34,9.80
2014,10,10,06,35,9.80
2014,10,10,06,36,9.80
2014,10,10,06,37,9.80
2014,10,10,06,38,9.80
2014,10,10,06,39,9.80
2014,10,10,06,40,9.80
2014,10,10,06,41,9.90
2014,10,10,06,42,9.90
2014,10,10,06,43,9.90
2014,10,10,06,44,9.90
2014,10,10,06,45,9.90
2014,10,10,06,46,9.90
2014,10,10,06,47,9.90
2014,10,10,06,48,10.00
2014,10,10,06,49,10.00
2014,10,10,06,50,10.00
2014,10,10,06,51,10.00
2014,10,10,06,52,10.00
2014,10,10,06,53,10.00
2014,10,10,06,54,10.00
2014,10,10,06,55,10.00
2014,10,10,06,56,10.00
2014,10,10,06,57,10.10
2014,10,10,06,58,10.10
2014,10,10,06,59,10.10
2014,10,10,07,00,10.10
2014,10,10,07,01,10.10
2014,10,10,07,02,10.10
2014,10,10,07,03,10.10
2014,10,10,07,04,10.10
2014,10,10,07,05,10.10
2014,10,10,07,06,10.10
2014,10,10,07,07,10.10
2014,10,10,07,08,10.10
2014,10,10,07,09,10.10
2014,10,10,07,10,10.10
2014,10,10,07,11,10.10
2014,10,10,07,12,10.10
2014,10,10,07,13,10.10
2014,10,10,07,14,10.20
2014,10,10,07,15,10.20
2014,10,10,07,16,10.30
2014,10,10,07,17,10.30
2014,10,10,07,18,10.30
2014,10,10,07,19,10.30
2014,10,10,07,20,10.30
2014,10,10,07,21,10.30
2014,10,10,07,22,10.30
2014,10,10,07,23,10.30
2014,10,10,07,24,10.30
2014,10,10,07,25,10.30
2014,10,10,07,26,10.30
2014,10,10,07,27,10.30
2014,10,10,07,28,10.30
2014,10,10,07,29,10.40
2014,10,10,07,30,10.40
2014,10,10,07,31,10.40
2014,10,10,07,32,10.40
2014,10,10,07,33,10.40
2014,10,10,07,34,10.40
2014,10,10,07,35,10.40
2014,10,10,07,36,10.40
2014,10,10,07,37,10.40
2014,10,10,07,38,10.40
2014,10,10,07,39,10.40
2014,10,10,07,40,10.40
2014,10,10,07,41,10.30
2014,10,10,07,42,10.30
2014,10,10,07,43,10.30
2014,10,10,07,44,10.30
2014,10,10,07,45,10.30
2014,10,10,07,46,10.30
2014,10,10,07,47,10.30
2014,10,10,07,48,10.30
2014,10,10,07,49,10.30
2014,10,10,07,50,10.30
2014,10,10,07,51,10.30
2014,10,10,07,52,10.30
2014,10,10,07,53,10.30
2014,10,10,07,54,10.40
2014,10,10,07,55,10.40
2014,10,10,07,56,10.40
2014,10,10,07,57,10.40
2014,10,10,07,58,10.40
2014,10,10,07,59,10.40
2014,10,10,08,00,10.40
2014,10,10,08,01,10.40
2014,10,10,08,02,10.40
2014,10,10,08,03,10.40
2014,10,10,08,04,10.40
2014,10,10,08,05,10.40
2014,10,10,08,06,10.40
2014,10,10,08,07,10.40
2014,10,10,08,08,10.50
2014,10,10,08,09,10.50
2014,10,10,08,10,7.90
2014,10,10,11,12,13.00
2014,10,10,11,13,12.80
2014,10,10,11,14,12.70
2014,10,10,11,15,12.70
2014,10,10,11,16,12.60
2014,10,10,11,17,12.50
2014,10,10,11,18,12.40
2014,10,10,11,19,12.30
2014,10,10,11,20,12.20
2014,10,10,11,21,12.20
2014,10,10,11,22,12.10
2014,10,10,11,23,12.10
2014,10,10,11,24,12.10
2014,10,10,11,25,12.20
2014,10,10,11,26,12.20
2014,10,10,11,27,12.20
2014,10,10,11,28,12.20
2014,10,10,11,29,12.20
2014,10,10,11,30,12.20
2014,10,10,11,31,12.20
2014,10,10,11,32,12.20
2014,10,10,11,33,12.20
2014,10,10,11,34,12.30
2014,10,10,11,35,12.20
2014,10,10,11,36,12.30
2014,10,10,11,37,12.30
2014,10,10,11,38,12.30
2014,10,10,11,39,12.30
2014,10,10,11,40,12.30
2014,10,10,11,41,12.30
2014,10,10,11,42,12.40
2014,10,10,11,43,12.40
2014,10,10,11,44,12.50
2014,10,10,11,45,12.50
2014,10,10,11,46,12.60
2014,10,10,11,47,12.60
2014,10,10,11,48,12.60
2014,10,10,11,49,12.60
2014,10,10,11,50,12.70
2014,10,10,11,51,12.70
2014,10,10,11,52,12.70
2014,10,10,11,53,12.70
2014,10,10,11,54,12.80
2014,10,10,11,55,12.80
2014,10,10,11,56,12.80
2014,10,10,11,57,12.80
2014,10,10,11,58,12.80
2014,10,10,11,59,12.80
2014,10,10,12,00,12.80
2014,10,10,12,01,12.80
2014,10,10,12,02,12.80
2014,10,10,12,03,12.80
2014,10,10,12,04,12.70
2014,10,10,12,05,12.70
2014,10,10,12,06,12.70
2014,10,10,12,07,12.70
2014,10,10,12,08,12.70
2014,10,10,12,09,12.70
2014,10,10,12,10,12.70
2014,10,10,12,11,12.70
2014,10,10,12,12,12.70
2014,10,10,12,13,12.70
2014,10,10,12,14,12.70
2014,10,10,12,15,12.70
2014,10,10,12,16,12.70
2014,10,10,12,17,12.70
2014,10,10,12,18,12.80
2014,10,10,12,19,12.80
2014,10,10,12,20,12.80
2014,10,10,12,21,12.80
2014,10,10,12,22,12.80
2014,10,10,12,23,12.80
2014,10,10,12,24,12.90
2014,10,10,12,25,12.90
2014,10,10,12,26,12.80
2014,10,10,12,27,12.80
2014,10,10,12,28,12.80
2014,10,10,12,29,12.80
2014,10,10,12,30,12.80
2014,10,10,12,31,12.80
2014,10,10,12,32,12.80
2014,10,10,12,33,12.80
2014,10,10,12,34,12.80
2014,10,10,12,35,12.80
2014,10,10,12,36,12.80
2014,10,10,12,37,12.80
2014,10,10,12,38,12.80
2014,10,10,12,39,12.80
2014,10,10,12,40,12.90
2014,10,10,12,41,12.90
2014,10,10,12,42,13.00
2014,10,10,12,43,13.00
2014,10,10,12,44,13.00
2014,10,10,12,45,13.00
2014,10,10,12,46,13.10
2014,10,10,12,47,13.20
2014,10,10,12,48,13.20
2014,10,10,12,49,13.30
2014,10,10,12,50,13.30
2014,10,10,12,51,13.30
2014,10,10,12,52,13.40
2014,10,10,12,53,13.40
2014,10,10,12,54,13.50
2014,10,10,12,55,13.50
2014,10,10,12,56,13.50
2014,10,10,12,57,13.50
2014,10,10,12,58,13.50
2014,10,10,12,59,13.60
2014,10,10,13,00,13.60
2014,10,10,13,01,13.60
2014,10,10,13,02,13.70
2014,10,10,13,03,13.70
2014,10,10,13,04,13.80
2014,10,10,13,05,13.80
2014,10,10,13,06,13.80
2014,10,10,13,07,13.80
2014,10,10,13,08,13.90
2014,10,10,13,09,13.90
2014,10,10,13,10,13.90
2014,10,10,13,11,14.00
2014,10,10,13,12,14.00
2014,10,10,13,13,14.00
2014,10,10,13,14,14.00
2014,10,10,13,15,14.10
2014,10,10,13,16,14.20
2014,10,10,13,17,14.40
2014,10,10,13,18,14.50
2014,10,10,13,19,14.70
2014,10,10,13,20,14.80
2014,10,10,13,21,14.90
2014,10,10,13,22,14.90
2014,10,10,13,23,14.80
2014,10,10,13,24,14.80
2014,10,10,13,25,14.80
2014,10,10,13,26,14.80
2014,10,10,13,27,14.80
2014,10,10,13,28,14.80
2014,10,10,13,29,14.80
2014,10,10,13,30,14.70
2014,10,10,13,31,14.60
2014,10,10,13,32,14.60
2014,10,10,13,33,14.40
2014,10,10,13,34,14.30
2014,10,10,13,35,14.20
2014,10,10,13,36,14.10
2014,10,10,13,37,14.00
2014,10,10,13,38,14.00
2014,10,10,13,39,13.90
2014,10,10,13,40,13.90
2014,10,10,13,41,13.80
2014,10,10,13,42,13.70
2014,10,10,13,43,13.70
2014,10,10,13,44,13.70
2014,10,10,13,45,13.70
2014,10,10,13,46,13.80
2014,10,10,13,47,13.80
2014,10,10,13,48,13.90
2014,10,10,13,49,13.90
2014,10,10,13,50,14.00
2014,10,10,13,51,14.10
2014,10,10,13,52,14.10
2014,10,10,13,53,14.10
2014,10,10,13,54,14.20
2014,10,10,13,55,14.20
2014,10,10,13,56,14.20
2014,10,10,13,57,14.20
2014,10,10,13,58,14.20
2014,10,10,13,59,14.20
2014,10,10,14,00,14.20
2014,10,10,14,01,14.10
2014,10,10,14,02,14.00
2014,10,10,14,03,14.00
2014,10,10,14,04,14.00
2014,10,10,14,05,14.00
2014,10,10,14,06,13.90
2014,10,10,14,07,13.90
2014,10,10,14,08,13.90
2014,10,10,14,09,13.90
2014,10,10,14,10,13.90
2014,10,10,14,11,13.90
2014,10,10,14,12,14.00
2014,10,10,14,13,14.00
2014,10,10,14,14,14.00
2014,10,10,14,15,14.00
2014,10,10,14,16,14.00
2014,10,10,14,17,13.90
2014,10,10,14,18,13.90
2014,10,10,14,19,13.90
2014,10,10,14,20,13.90
2014,10,10,14,21,14.00
2014,10,10,14,22,14.00
2014,10,10,14,23,14.00
2014,10,10,14,24,14.10
2014,10,10,14,25,14.10
2014,10,10,14,26,14.10
2014,10,10,14,27,14.00
2014,10,10,14,28,14.00
2014,10,10,14,29,14.00
2014,10,10,14,30,13.90
2014,10,10,14,31,13.90
2014,10,10,14,32,13.90
2014,10,10,14,33,13.80
2014,10,10,14,34,13.80
2014,10,10,14,35,13.80
2014,10,10,14,36,13.80
2014,10,10,14,37,13.90
2014,10,10,14,38,13.90
2014,10,10,14,39,13.90
2014,10,10,14,40,14.00
2014,10,10,14,41,14.00
2014,10,10,14,42,14.00
2014,10,10,14,43,14.10
2014,10,10,14,44,14.10
2014,10,10,14,45,14.10
2014,10,10,14,46,14.10
2014,10,10,14,47,14.20
2014,10,10,14,48,14.20
2014,10,10,14,49,14.20
2014,10,10,14,50,14.20
2014,10,10,14,51,14.20
2014,10,10,14,52,14.30
2014,10,10,14,53,14.30
2014,10,10,14,54,14.30
2014,10,10,14,55,14.30
2014,10,10,14,56,14.30
2014,10,10,14,57,14.30
2014,10,10,14,58,14.20
2014,10,10,14,59,14.10
2014,10,10,15,00,14.10
2014,10,10,15,01,14.10
2014,10,10,15,02,14.10
2014,10,10,15,03,14.10
2014,10,10,15,04,14.20
2014,10,10,15,05,14.20
2014,10,10,15,06,14.20
2014,10,10,15,07,14.20
2014,10,10,15,08,14.20
2014,10,10,15,09,14.20
2014,10,10,15,10,14.20
2014,10,10,15,11,14.20
2014,10,10,15,12,14.10
2014,10,10,15,13,14.10
2014,10,10,15,14,14.10
2014,10,10,15,15,14.10
2014,10,10,15,16,14.10
2014,10,10,15,17,14.10
2014,10,10,15,18,14.10
2014,10,10,15,19,14.00
2014,10,10,15,20,14.00
2014,10,10,15,21,13.90
2014,10,10,15,22,13.90
2014,10,10,15,23,13.90
2014,10,10,15,24,13.80
2014,10,10,15,25,13.80
2014,10,10,15,26,13.80
2014,10,10,15,27,13.80
2014,10,10,15,28,13.80
2014,10,10,15,29,13.70
2014,10,10,15,30,13.70
2014,10,10,15,31,13.70
2014,10,10,15,32,13.80
2014,10,10,15,33,13.80
2014,10,10,15,34,13.80
2014,10,10,15,35,13.80
2014,10,10,15,36,13.80
2014,10,10,15,37,13.80
2014,10,10,15,38,13.80
2014,10,10,15,39,13.80
2014,10,10,15,40,13.90
2014,10,10,15,41,13.90
2014,10,10,15,42,13.90
2014,10,10,15,43,13.80
2014,10,10,15,44,13.80
2014,10,10,15,45,13.80
2014,10,10,15,46,13.80
2014,10,10,15,47,13.80
2014,10,10,15,48,13.80
2014,10,10,15,49,13.70
2014,10,10,15,50,13.70
2014,10,10,15,51,13.70
2014,10,10,15,52,13.60
2014,10,10,15,53,13.60
2014,10,10,15,54,13.50
2014,10,10,15,55,13.50
2014,10,10,15,56,13.40
2014,10,10,15,57,13.30
2014,10,10,15,58,13.30
2014,10,10,15,59,13.20
2014,10,10,16,00,13.20
2014,10,10,16,01,13.10
2014,10,10,16,02,13.00
2014,10,10,16,03,13.00
2014,10,10,16,04,12.90
2014,10,10,16,05,12.90
2014,10,10,16,06,12.90
2014,10,10,16,07,12.80
2014,10,10,16,08,12.80
2014,10,10,16,09,12.80
2014,10,10,16,10,12.80
2014,10,10,16,11,12.80
2014,10,10,16,12,12.90
2014,10,10,16,13,12.90
2014,10,10,16,14,13.00
2014,10,10,16,15,13.10
2014,10,10,16,16,13.10
2014,10,10,16,17,13.20
2014,10,10,16,18,13.20
2014,10,10,16,19,13.20
2014,10,10,16,20,13.20
2014,10,10,16,21,13.20
2014,10,10,16,22,13.20
2014,10,10,16,23,13.30
2014,10,10,16,24,13.30
2014,10,10,16,25,13.30
2014,10,10,16,26,13.30
2014,10,10,16,27,13.20
2014,10,10,16,28,13.20
2014,10,10,16,29,13.20
2014,10,10,16,30,13.10
2014,10,10,16,31,13.10
2014,10,10,16,32,13.20
2014,10,10,16,33,13.20
2014,10,10,16,34,13.20
2014,10,10,16,35,13.20
2014,10,10,16,36,13.20
2014,10,10,16,37,13.20
2014,10,10,16,38,13.20
2014,10,10,16,39,13.20
2014,10,10,16,40,13.20
2014,10,10,16,41,13.20
2014,10,10,16,42,13.20
2014,10,10,16,43,13.20
2014,10,10,16,44,13.20
2014,10,10,16,45,13.20
2014,10,10,16,46,13.20
2014,10,10,16,47,13.20
2014,10,10,16,48,13.20
2014,10,10,16,49,13.20
2014,10,10,16,50,13.20
2014,10,10,16,51,13.20
2014,10,10,16,52,13.20
2014,10,10,16,53,13.20
2014,10,10,16,54,13.20
2014,10,10,16,55,13.20
2014,10,10,16,56,13.20
2014,10,10,16,57,13.20
2014,10,10,16,58,13.20
2014,10,10,16,59,13.20
2014,10,10,17,00,13.20
2014,10,10,17,01,13.20
2014,10,10,17,02,13.20
2014,10,10,17,03,13.20
2014,10,10,17,04,13.20
2014,10,10,17,05,13.20
2014,10,10,17,06,13.20
2014,10,10,17,07,13.20
2014,10,10,17,08,13.20
2014,10,10,17,09,13.20
2014,10,10,17,10,13.20
2014,10,10,17,11,13.20
2014,10,10,17,12,13.20
2014,10,10,17,13,13.20
2014,10,10,17,14,13.20
2014,10,10,17,15,13.20
2014,10,10,17,16,13.20
2014,10,10,17,17,13.20
2014,10,10,17,18,13.20
2014,10,10,17,19,13.20
2014,10,10,17,20,13.10
2014,10,10,17,21,13.10
2014,10,10,17,22,13.10
2014,10,10,17,23,13.00
2014,10,10,17,24,13.00
2014,10,10,17,25,13.00
2014,10,10,17,26,13.00
2014,10,10,17,27,13.00
2014,10,10,17,28,13.00
2014,10,10,17,29,13.00
2014,10,10,17,30,13.10
2014,10,10,17,31,13.10
2014,10,10,17,32,13.10
2014,10,10,17,33,13.10
2014,10,10,17,34,13.10
2014,10,10,17,35,13.10
2014,10,10,17,36,13.10
2014,10,10,17,37,13.10
2014,10,10,17,38,13.10
2014,10,10,17,39,13.10
2014,10,10,17,40,13.10
2014,10,10,17,41,13.10
2014,10,10,17,42,13.10
2014,10,10,17,43,13.10
2014,10,10,17,44,13.10
2014,10,10,17,45,13.10
2014,10,10,17,46,13.10
2014,10,10,17,47,13.10
2014,10,10,17,48,13.10
2014,10,10,17,49,13.10
2014,10,10,17,50,13.10
2014,10,10,17,51,13.10
2014,10,10,17,52,13.10
2014,10,10,17,53,13.10
2014,10,10,17,54,13.10
2014,10,10,17,55,13.10
2014,10,10,17,56,13.10
2014,10,10,17,57,13.10
2014,10,10,17,58,13.10
2014,10,10,17,59,13.10
2014,10,10,18,00,13.10
2014,10,10,18,01,13.10
2014,10,10,18,02,13.10
2014,10,10,18,03,13.10
2014,10,10,18,04,13.10
2014,10,10,18,05,13.10
2014,10,10,18,06,13.10
2014,10,10,18,07,13.10
2014,10,10,18,08,13.10
2014,10,10,18,09,13.20
2014,10,10,18,10,13.20
2014,10,10,18,11,13.20
2014,10,10,18,12,13.20
2014,10,10,18,13,13.20
2014,10,10,18,14,13.20
2014,10,10,18,15,13.20
2014,10,10,18,16,13.20
2014,10,10,18,17,13.20
2014,10,10,18,18,13.20
2014,10,10,18,19,13.20
2014,10,10,18,20,13.20
2014,10,10,18,21,13.20
2014,10,10,18,22,13.20
2014,10,10,18,23,13.20
2014,10,10,18,24,13.20
2014,10,10,18,25,13.20
2014,10,10,18,26,13.20
2014,10,10,18,27,13.20
2014,10,10,18,28,13.20
2014,10,10,18,29,13.20
2014,10,10,18,30,13.20
2014,10,10,18,31,13.20
2014,10,10,18,32,13.20
2014,10,10,18,33,13.20
2014,10,10,18,34,13.20
2014,10,10,18,35,13.20
2014,10,10,18,36,13.20
2014,10,10,18,37,13.20
2014,10,10,18,38,13.20
2014,10,10,18,39,13.20
2014,10,10,18,40,13.30
2014,10,10,18,41,13.30
2014,10,10,18,42,13.30
2014,10,10,18,43,13.30
2014,10,10,18,44,13.30
2014,10,10,18,45,13.30
2014,10,10,18,46,13.30
2014,10,10,18,47,13.30
2014,10,10,18,48,13.30
2014,10,10,18,49,13.30
2014,10,10,18,50,13.30
2014,10,10,18,51,13.30
2014,10,10,18,52,13.30
2014,10,10,18,53,13.30
2014,10,10,18,54,13.30
2014,10,10,18,55,13.30
2014,10,10,18,56,13.40
2014,10,10,18,57,13.40
2014,10,10,18,58,13.40
2014,10,10,18,59,13.40
2014,10,10,19,00,13.40
2014,10,10,19,01,13.40
2014,10,10,19,02,13.40
2014,10,10,19,03,13.40
2014,10,10,19,04,13.40
2014,10,10,19,05,13.40
2014,10,10,19,06,13.40
2014,10,10,19,07,13.40
2014,10,10,19,08,13.50
2014,10,10,19,09,13.50
2014,10,10,19,10,13.50
2014,10,10,19,11,13.50
2014,10,10,19,12,13.50
2014,10,10,19,13,13.50
2014,10,10,19,14,13.50
2014,10,10,19,15,13.50
2014,10,10,19,16,13.50
2014,10,10,19,17,13.50
2014,10,10,19,18,13.50
2014,10,10,19,19,13.50
2014,10,10,19,20,13.50
2014,10,10,19,21,13.50
2014,10,10,19,22,13.50
2014,10,10,19,23,13.50
2014,10,10,19,24,13.50
2014,10,10,19,25,13.50
2014,10,10,19,26,13.50
2014,10,10,19,27,13.50
2014,10,10,19,28,13.50
2014,10,10,19,29,13.50
2014,10,10,19,30,13.60
2014,10,10,19,31,13.60
2014,10,10,19,32,13.60
2014,10,10,19,33,13.60
2014,10,10,19,34,13.60
2014,10,10,19,35,13.60
2014,10,10,19,36,13.60
2014,10,10,19,37,13.60
2014,10,10,19,38,13.60
2014,10,10,19,39,13.60
2014,10,10,19,40,13.70
2014,10,10,19,41,13.70
2014,10,10,19,42,13.70
2014,10,10,19,43,13.70
2014,10,10,19,44,13.70
2014,10,10,19,45,13.70
2014,10,10,19,46,13.70
2014,10,10,19,47,13.70
2014,10,10,19,48,13.70
2014,10,10,19,49,13.70
2014,10,10,19,50,13.70
2014,10,10,19,51,13.70
2014,10,10,19,52,13.70
2014,10,10,19,53,13.70
2014,10,10,19,54,13.70
2014,10,10,19,55,13.70
2014,10,10,19,56,13.70
2014,10,10,19,57,13.70
2014,10,10,19,58,13.70
2014,10,10,19,59,13.70
2014,10,10,20,00,13.70
2014,10,10,20,01,13.70
2014,10,10,20,02,13.70
2014,10,10,20,03,13.70
2014,10,10,20,04,13.70
2014,10,10,20,05,13.70
2014,10,10,20,06,13.70
2014,10,10,20,07,13.70
2014,10,10,20,08,13.70
2014,10,10,20,09,13.70
2014,10,10,20,10,13.80
2014,10,10,20,11,13.80
2014,10,10,20,12,13.80
2014,10,10,20,13,13.80
2014,10,10,20,14,13.80
2014,10,10,20,15,13.80
2014,10,10,20,16,13.80
2014,10,10,20,17,13.80
2014,10,10,20,18,13.80
2014,10,10,20,19,13.80
2014,10,10,20,20,13.80
2014,10,10,20,21,13.80
2014,10,10,20,22,13.80
2014,10,10,20,23,13.80
2014,10,10,20,24,13.80
2014,10,10,20,25,13.90
2014,10,10,20,26,13.90